Notices

What's New in latest Release from April 7th, 2021:

- Updated Glossary, including Speed of Maximum Gust, and Total Hourly Precipitation

- Updated national and regional climate services offices contacts and prices information

- Addition of station inventory lists for 1981-2010, 1971-2000, and 1961-1990 Normals.

If you haven't already, please take our survey and provide feedback about our website: https://eccc.sondage-survey.ca/f/LanguageSelection.aspx?s=442ca660-fcf1-47c0-95a9-59707d6fd709

Hourly Data Report for December 14, 2020

FORT GOOD HOPE CS
NORTHWEST TERRITORIES
Current Station Operator: ECCC - MSC

66°14'32.044" N
128°38'39.081" W
81.70 m
2201450
71491
ZGH

Download Data

Hourly Data (December 2020)
Hourly Data Report for December 14, 2020
TIME
LST
Temp Definition
°C
Dew Point Definition
°C
Rel Hum Definition
%
Precip. Amount Definition
mm

Wind Dir Definition
10's deg

Wind Spd Definition
km/h
Visibility Definition
km
Stn Press Definition
kPa
Hmdx Definition


Wind Chill Definition


Weather Definition


00:00 -34.7 -38.3 70 0.0 20 6   102.28   -42 LegendNANA
01:00 -34.0 -37.6 70 0.0 22 8   102.24   -43 LegendNANA
02:00 -33.9 -37.5 70 0.0 22 6   102.22   -41 LegendNANA
03:00 -33.2 -36.6 71 0.0 22 7   102.20   -41 LegendNANA
04:00 -33.3 -36.8 71 0.0 27 6   102.19   -40 LegendNANA
05:00 -32.9 -36.4 71 0.0 25 6   102.16   -40 LegendNANA
06:00 -33.3 -36.9 70 0.0 22 4   102.13   -38 LegendNANA
07:00 -34.6 -38.3 69 0.0 26 2   102.09   -37 LegendNANA
08:00 -34.9 -38.5 69 0.0 23 4   102.07   -40 LegendNANA
09:00 -35.1 -38.7 70 0.0 24 4   102.04   -40 LegendNANA
10:00 -35.6 -39.3 69 0.0 24 4   102.00   -41 LegendNANA
11:00 -34.6 -38.1 70 0.0 23 3   101.98   -38 LegendNANA
12:00 -34.5 -38.1 70 0.0 21 4   101.94   -39 LegendNANA
13:00 -34.9 -38.6 69 0.0 23 3   101.90   -39 LegendNANA
14:00 -33.5 -36.9 72 0.0 23 5   101.86   -40 LegendNANA
15:00 -33.6 -37.2 70 0.0 30 3   101.87   -37 LegendNANA
16:00 -32.4 -36.0 71 0.3 23 3   101.78   -36 LegendNANA
17:00 -33.3 -36.9 70 0.0 20 5   101.73   -39 LegendNANA
18:00 -33.0 -36.6 71 0.0 22 5   101.72   -39 LegendNANA
19:00 -32.2 -35.7 71 0.0 24 7   101.69   -40 LegendNANA
20:00 -31.6 -35.1 72 0.0 26 6   101.62   -38 LegendNANA
21:00 -31.7 -35.1 72 0.0 24 6   101.58   -38 LegendNANA
22:00 -31.7 -35.1 72 0.0 23 5   101.55   -38 LegendNANA
23:00 -31.4 -34.9 72 0.0 22 5   101.51   -37 LegendNANA

Notes on Data Quality.

Legend

  • E = Estimated
  • M = Missing
  • NA = Not Available*
  • [empty] = Indicates an unobserved value
Date modified: